{"data":{"norad_id":64700,"intl_designator":"2025-142E","name":"STARLINK-34560","alt_names":[],"object_type":"PAYLOAD","status":"ACTIVE","operator":null,"country":"US","launch_date":"2025-06-28","launch_site_code":"AFWTR","launch_vehicle":null,"mission":null,"orbit_class":"UNKNOWN","rcs_meters":null,"size_class":null,"mass_kg":null,"dimensions":null,"purposes":["comms"],"wikipedia_slug":null,"has_3d_model":false,"image_url":null,"decayed_at":null,"tle_current":{"epoch":"2026-05-25T04:18:21.892320Z","epoch_age_seconds":69847,"freshness":"FRESH","line1":"1 64700U 25142E   26145.17942005  .00004476  00000+0  38259-3 0  9997","line2":"2 64700  70.0003 121.7520 0003974 266.6031  93.4673 14.98335296 50898","mean_motion":14.98335296,"eccentricity":0.0003974,"inclination_deg":70.0003,"raan_deg":121.752,"arg_perigee_deg":266.6031,"mean_anomaly_deg":93.4673,"bstar":0.00038259,"rev_number":5089,"period_min":96.106659426916,"perigee_km":569.27751340304,"apogee_km":574.80151369601,"semimajor_km":6950.1765135495,"source":"CELESTRAK","updated_at":"2026-05-25T13:38:20.511321Z"}}}